Station NWPR1 - 8452660 - Newport, RI Image indicating link to RSS feed of recent meteorological observations for station NWPR1


Conditions at NWPR1 as of
(10:30 am EDT)
1430 GMT on 04/15/2024:
     

Click on the graph icon in the table below to see a time series plot of the last five days of that observation.

5-day plot - Wind Direction Wind Direction (WDIR):SSW ( 200 deg true )
5-day plot - Wind Speed Wind Speed (WSPD): 1.9 kts
5-day plot - Wind Gust Wind Gust (GST): 1.9 kts
5-day plot - Atmospheric Pressure Atmospheric Pressure (PRES):29.83 in
5-day plot - Water Temperature Water Temperature (WTMP): 46.8 °F
5-day plot - Wind Speed at 10 Meters Wind Speed at 10 meters (WSPD10M): 1.9 kts
5-day plot - Wind Speed at 20 Meters Wind Speed at 20 meters (WSPD20M): 1.9 kts
5-day plot -  Wind Speed, Wind Gust and Atmospheric Pressure Combined plot of Wind Speed, Gust, and Air Pressure
NOS Water Level Observation Network Water Level
Previous observations
TIME
(EDT)
5-day plot - Wind Direction
WDIR
 
5-day plot - Wind Speed
WSPD
kts
5-day plot - Wind Gust
GST
kts
5-day plot - Wave Height
WVHT
ft
5-day plot - Dominant Wave Period
DPD
sec
5-day plot - Average Wave Period
APD
sec
5-day plot - Mean Wave Direction
MWD
 
5-day plot - Atmospheric Pressure
PRES
in
5-day plot - Pressure Tendency
PTDY
in
5-day plot - Air Temperature
ATMP
°F
5-day plot - Water Temperature
WTMP
°F
5-day plot - Dew Point
DEWP
°F
5-day plot - Salinity
SAL
psu
5-day plot - Visibility
VIS
nmi
5-day plot - Tide (above MLLW)
TIDE
ft
2024-04-15 10:24 amSSW 1.9 1.9----29.83-- 46.8----
2024-04-15 10:18 am- 0.0 1.0----29.82- 57.9 46.8----
2024-04-15 10:12 am- 0.0 1.9----29.82- 56.5 46.8----
2024-04-15 10:06 am SW 1.0 2.9----29.82- 55.4 46.8----
2024-04-15 10:00 am S 2.9 4.1----29.82+0.06 55.6 46.8----
2024-04-15 09:54 am S 1.9 2.9----29.82- 55.0 46.8----
2024-04-15 09:48 amSSE 1.9 2.9----29.82- 54.9 46.8----
2024-04-15 09:42 am S 1.9 2.9----29.82- 54.7 46.8----
2024-04-15 09:36 am S 1.9 1.9----29.82- 53.8 46.6----
2024-04-15 09:30 am S 1.0 1.9----29.82- 52.2 46.6----
2024-04-15 09:24 amSSW 1.9 2.9----29.82- 52.0 46.6----
2024-04-15 09:18 am S 2.9 5.1----29.82- 51.6 46.6----
2024-04-15 09:12 am S 4.1 6.0----29.82- 51.4 46.6----
2024-04-15 09:06 am S 5.1 6.0----29.82- 51.6 46.6----
2024-04-15 09:00 am S 4.1 4.1----29.81+0.06 51.4 46.6----
2024-04-15 08:54 am S 2.9 5.1----29.82- 50.0 46.6----
2024-04-15 08:48 amSSW 4.1 6.0----29.82- 49.3 46.6----
2024-04-15 08:42 amSSW 5.1 6.0----29.82- 48.4 46.6----
2024-04-15 08:36 amSSW 4.1 6.0----29.82- 48.6 46.6----
2024-04-15 08:30 amSSW 4.1 6.0----29.82- 48.4 46.6----
2024-04-15 08:24 amSSW 5.1 7.0----29.81- 48.2 46.6----
2024-04-15 08:18 am SW 5.1 6.0----29.81- 48.0 46.6----
2024-04-15 08:12 amSSW 4.1 5.1----29.81- 48.7 46.6----
2024-04-15 08:06 am SW 2.9 7.0----29.81- 49.1 46.6----
2024-04-15 08:00 am S 6.0 7.0----29.81+0.08 49.1 46.6----
2024-04-15 07:54 am S 6.0 8.9----29.80- 48.9 46.6----
2024-04-15 07:48 am S 6.0 7.0----29.80- 48.4 46.6----
2024-04-15 07:42 am S 4.1 5.1----29.80- 48.2 46.6----
2024-04-15 07:36 am S 4.1 5.1----29.80- 48.0 46.6----
2024-04-15 07:30 am S 4.1 6.0----29.80- 47.7 46.6----
2024-04-15 07:24 am S 6.0 11.1----29.80- 47.7 46.6----
2024-04-15 07:18 am S 8.9 11.1----29.80- 48.0 46.6----
2024-04-15 07:12 am S 8.0 11.1----29.78- 48.2 46.6----
2024-04-15 07:06 am S 6.0 6.0----29.78- 48.7 46.6----
2024-04-15 07:00 amSSE 4.1 6.0----29.77+0.04 48.6 46.6----
2024-04-15 06:54 am SE 4.1 5.1----29.76- 48.6 46.6----
2024-04-15 06:48 am SE 4.1 5.1----29.76- 48.7 46.6----
2024-04-15 06:42 am E 1.9 2.9----29.76- 48.7 46.6----
2024-04-15 06:36 am SE 2.9 6.0----29.76- 48.6 46.6----
2024-04-15 06:30 amSSE 4.1-----29.75- 48.6 46.6----
2024-04-15 06:24 am S 1.0 1.0----29.75- 48.4 46.6----
2024-04-15 06:18 am- 0.0 1.9----29.75- 48.4 46.6----
2024-04-15 06:12 amNNE 1.9 5.1----29.74- 48.4 46.8----
2024-04-15 06:06 amENE 2.9 2.9----29.74- 48.2 46.8----
2024-04-15 06:00 am- 0.0 2.9----29.75+0.05 48.4 46.8----
2024-04-15 05:54 am SW 2.9 7.0----29.76- 48.4 46.8----
2024-04-15 05:48 amSSW 6.0 6.0----29.76- 48.4 46.8----
2024-04-15 05:42 am W 1.9 4.1----29.75- 48.2 46.8----
2024-04-15 05:36 amSSW 4.1 5.1----29.75- 48.2 46.8----
2024-04-15 05:30 am S 1.9 4.1----29.73- 48.7 46.8----
2024-04-15 05:24 am N 2.9 6.0----29.72- 48.7 46.8----
2024-04-15 05:18 am N 5.1 7.0----29.72- 48.4 46.8----
2024-04-15 05:12 amNNE 5.1 5.1----29.72- 47.5 46.8----
2024-04-15 05:06 am N 4.1 4.1----29.73- 47.1 46.8----
2024-04-15 05:00 am NE 1.0-----29.73+0.05 47.1 46.8----
2024-04-15 04:54 am- 0.0 1.9----29.73- 47.1 46.8----
2024-04-15 04:48 am SW 1.9 4.1----29.73- 47.3 46.8----
2024-04-15 04:42 amSSW 4.1 5.1----29.73- 47.3 46.8----
2024-04-15 04:36 amSSW 2.9 2.9----29.73- 47.5 46.8----
2024-04-15 04:30 am SW 2.9 4.1----29.73- 47.7 46.8----
2024-04-15 04:24 amSSW 4.1 5.1----29.72- 47.7 46.8----
2024-04-15 04:18 amSSW 5.1 5.1----29.72- 47.5 46.8----
2024-04-15 04:12 amSSW 2.9 5.1----29.72- 47.8 46.8----
2024-04-15 04:06 am S 4.1 4.1----29.72- 47.7 46.8----
2024-04-15 04:00 am S 2.9 2.9----29.72+0.02 47.5 46.8----
2024-04-15 03:54 am- 0.0 1.9----29.72- 47.3 46.8----
2024-04-15 03:48 amESE 1.0 4.1----29.72- 47.3 46.8----
2024-04-15 03:42 amSSE 4.1 5.1----29.72- 47.3 46.8----
2024-04-15 03:36 amSSE 4.1 4.1----29.72- 46.9 46.8----
2024-04-15 03:30 amSSE 2.9 2.9----29.72- 46.9 46.8----
2024-04-15 03:24 am SW 2.9 5.1----29.71- 47.3 46.8----
2024-04-15 03:18 am SW 5.1 8.9----29.71- 46.9 46.6----
2024-04-15 03:12 am SW 7.0 8.9----29.71- 46.9 46.6----
2024-04-15 03:06 am SW 7.0 9.9----29.71- 47.1 46.6----
2024-04-15 03:00 amSSW 7.0 8.0----29.70+0.00 47.5 46.6----
2024-04-15 02:54 amSSW 5.1 7.0----29.70- 47.1 46.8----
2024-04-15 02:48 amSSW 6.0 7.0----29.70- 47.1 46.8----
2024-04-15 02:42 am S 5.1 8.9----29.70- 47.1 46.8----
2024-04-15 02:36 am S 8.0 8.9----29.70- 46.9 46.8----
2024-04-15 02:30 am S 6.0 7.0----29.70- 47.1 46.8----
2024-04-15 02:24 am S 6.0 6.0----29.69- 47.5 46.9----
2024-04-15 02:18 am S 1.9 2.9----29.69- 47.7 46.9----
2024-04-15 02:12 amSSW 1.9 1.9----29.69- 48.0 46.9----
2024-04-15 02:06 am- 0.0 0.0----29.69- 48.0 46.9----
2024-04-15 02:00 am- 0.0 1.0----29.68-0.03 48.0 46.9----
2024-04-15 01:54 am- 0.0 1.9----29.68- 48.2 46.9----
2024-04-15 01:48 am SE 1.0 4.1----29.68- 48.4 46.9----
2024-04-15 01:42 am SE 2.9 4.1----29.68- 48.4 46.9----
2024-04-15 01:36 amSSE 2.9 4.1----29.68- 48.6 46.9----
2024-04-15 01:30 am SE 2.9 2.9----29.69- 48.6 46.9----
2024-04-15 01:24 am SE 1.9 1.9----29.70- 48.6 46.9----
2024-04-15 01:18 amESE 1.0 1.0----29.70- 48.6 46.9----
2024-04-15 01:12 am E 1.0 1.0----29.70- 48.2 46.9----
2024-04-15 01:06 am- 0.0 1.9----29.70- 48.4 46.9----
2024-04-15 01:00 amSSE 1.9 1.9----29.70-0.02 48.2 46.9----
2024-04-15 12:54 am- 0.0 1.9----29.70- 48.0 46.9----
2024-04-15 12:48 amESE 1.0 2.9----29.70- 47.8 46.9----
2024-04-15 12:42 am- 0.0 1.0----29.70- 47.7 46.9----
2024-04-15 12:36 am- 0.0 1.0----29.70- 47.7 46.9----
2024-04-15 12:30 am S 1.0 2.9----29.70- 47.8 46.9----
2024-04-15 12:24 amSSW 2.9 5.1----29.71- 48.0 46.9----
2024-04-15 12:18 amSSW 4.1 4.1----29.70- 48.2 46.9----
2024-04-15 12:12 amSSW 2.9 4.1----29.71- 48.0 46.9----
2024-04-15 12:06 am S 2.9 6.0----29.71- 48.0 46.9----
2024-04-15 12:00 am S 5.1 5.1----29.71-0.01 48.0 46.9----
2024-04-14 11:54 pmSSW 1.9 5.1----29.70- 48.2 46.9----
2024-04-14 11:48 pm SW 5.1 7.0----29.71- 48.4 46.9----
2024-04-14 11:42 pm SW 5.1 7.0----29.71- 48.4 46.9----
2024-04-14 11:36 pmSSW 6.0 8.0----29.71- 48.6 46.9----
2024-04-14 11:30 pmSSW 5.1 7.0----29.71- 48.6 46.9----
2024-04-14 11:24 pm SW 7.0 8.9----29.71- 49.5 46.9----
2024-04-14 11:18 pm SW 8.0 8.9----29.72- 49.8 46.9----
2024-04-14 11:12 pm SW 8.0 9.9----29.71- 49.3 46.9----
2024-04-14 11:06 pm SW 7.0 9.9----29.71- 48.9 46.9----
2024-04-14 11:00 pmSSW 8.0 8.9----29.71-0.01 48.7 46.9----
2024-04-14 10:54 pm SW 8.0 11.1----29.72- 48.6 46.9----
2024-04-14 10:48 pm SW 8.9 11.1----29.72- 48.6 46.9----
2024-04-14 10:42 pm SW 8.0 9.9----29.71- 48.7 46.9----
2024-04-14 10:36 pmSSW 8.9 12.0----29.71- 48.7 46.9----
2024-04-14 10:30 pmSSW 11.1 13.0----29.71- 48.7 46.9----
2024-04-14 10:24 pmSSW 9.9 12.0----29.72- 48.6 46.9----
2024-04-14 10:18 pmSSW 9.9 12.0----29.72- 48.7 46.9----
2024-04-14 10:12 pmSSW 11.1 14.0----29.72- 48.9 46.9----
2024-04-14 10:06 pmSSW 12.0 17.1----29.73- 49.1 46.9----
2024-04-14 10:00 pmSSW 14.0 15.9----29.73-0.03 49.3 46.9----
2024-04-14 09:54 pmSSW 13.0 15.0----29.73- 49.1 46.9----
2024-04-14 09:48 pmSSW 13.0 15.0----29.73- 48.9 46.9----
2024-04-14 09:42 pm SW 14.0 15.9----29.73- 49.3 46.9----
2024-04-14 09:36 pm SW 14.0 15.0----29.73- 49.1 46.9----
2024-04-14 09:30 pm SW 13.0 15.9----29.73- 49.1 46.9----
2024-04-14 09:24 pm SW 9.9 12.0----29.73- 48.6 46.9----
2024-04-14 09:18 pmSSW 9.9 13.0----29.73- 48.9 46.9----
2024-04-14 09:12 pmSSW 11.1 13.0----29.72- 49.1 46.9----
2024-04-14 09:06 pmSSW 11.1 14.0----29.72- 49.1 46.9----
2024-04-14 09:00 pmSSW 12.0 15.0----29.72-0.04 49.1 46.9----
2024-04-14 08:54 pmSSW 13.0 17.1----29.72- 49.3 46.9----
2024-04-14 08:48 pmSSW 12.0 14.0----29.72-- 46.9----
2024-04-14 08:42 pmSSW 11.1 15.0----29.72-- 46.9----
2024-04-14 08:36 pm S 9.9 13.0----29.73-- 46.9----
2024-04-14 08:30 pm-------29.73- 48.4 46.9----
2024-04-14 08:24 pm-------29.72- 48.2 46.9----
2024-04-14 08:18 pm S 9.9 13.0------ 48.2 46.9----
2024-04-14 08:12 pm S 11.1 15.0------ 48.2 46.9----
2024-04-14 08:06 pmSSW 12.0 15.9------ 48.2 46.9----
2024-04-14 08:00 pm S 13.0 17.1----29.72-0.05 48.2 46.9----
2024-04-14 07:54 pmSSW 13.0 15.9----29.72- 48.2 47.1----
2024-04-14 07:48 pm S 15.0 20.0----29.72- 48.0 47.1----
2024-04-14 07:42 pm S 14.0 17.1----29.73- 48.0 47.1----
2024-04-14 07:36 pm S 13.0 15.9----29.72- 48.2 47.1----
2024-04-14 07:30 pm S 11.1 15.9----29.72- 48.0 47.1----
2024-04-14 07:24 pm S 13.0 15.9----29.72- 47.8 47.1----
2024-04-14 07:00 pmSSW 11.1 14.0----29.76-0.03- 47.1----
2024-04-14 06:54 pmSSW 12.0 17.1----29.77-- 47.1----
2024-04-14 06:48 pmSSW 12.0 14.0----29.76- 48.2 47.1----
2024-04-14 06:42 pm S 11.1 12.0----29.77- 47.8 47.1----
2024-04-14 06:36 pm S 8.9 8.9----29.79- 47.7 47.1----
2024-04-14 06:30 pmSSW 6.0 8.0----29.80- 48.0 47.1----
2024-04-14 06:24 pmWSW 7.0 13.0----29.82- 48.4 47.1----
2024-04-14 06:18 pmWSW 12.0 15.0----29.82- 48.7 47.3----
2024-04-14 06:12 pmWSW 9.9 13.0----29.80- 48.7 47.3----
2024-04-14 06:06 pm S 8.9 17.1----29.77- 48.2 47.3----
2024-04-14 06:00 pm S 11.1 12.0----29.76-0.05 48.0 47.3----
2024-04-14 05:54 pm S 6.0 7.0----29.77- 48.2 47.3----
2024-04-14 05:48 pm S 4.1 5.1----29.78-- 47.3----
2024-04-14 05:42 pmWSW 1.9 2.9----29.79-- 47.3----
2024-04-14 05:36 pmWSW 1.9 5.1----29.78-- 47.3----
2024-04-14 05:30 pm S 2.9 7.0----29.76-- 47.3----
2024-04-14 05:24 pm S 7.0 9.9----29.76-- 47.3----
2024-04-14 05:18 pm S 8.9 11.1----29.76- 48.0 47.3----
2024-04-14 05:12 pm S 9.9 12.0----29.77- 48.2 47.3----
2024-04-14 05:06 pm S 8.9 9.9----29.77- 48.0 47.1----
2024-04-14 05:00 pmSSW 7.0 8.9----29.77-0.09 48.0 47.1----
2024-04-14 04:54 pm S 7.0 12.0----29.78- 47.7 47.1----
2024-04-14 04:48 pm S 11.1 12.0----29.78- 47.3 47.1----
2024-04-14 04:42 pmSSW 11.1 14.0----29.80- 47.5 47.1----
2024-04-14 04:36 pmSSW 12.0 17.1----29.80- 47.8 47.1----
2024-04-14 04:30 pm SW 13.0 14.0----29.80- 48.6 46.9----
2024-04-14 04:24 pmSSW 9.9 15.0----29.79- 48.6 46.9----
2024-04-14 04:18 pmSSW 12.0 15.9----29.79- 48.7 46.9----
2024-04-14 04:12 pmSSW 14.0 18.1----29.78- 48.9 46.9----
2024-04-14 04:06 pmSSW 14.0 17.1----29.79- 48.9 46.9----
2024-04-14 04:00 pmSSW 14.0 15.9----29.79-0.09 49.1 46.9----
2024-04-14 03:54 pmSSW 13.0 14.0----29.78- 49.8 46.9----
2024-04-14 03:48 pm S 12.0 14.0----29.78- 49.8 46.9----
2024-04-14 03:42 pmSSW 12.0 14.0----29.79- 49.6 46.8----
2024-04-14 03:36 pmSSW 11.1 13.0----29.79- 49.5 46.8----
2024-04-14 03:30 pmSSW 11.1 12.0----29.80- 49.5 46.8----
2024-04-14 03:24 pmSSW 8.9 9.9----29.79- 50.2 46.8----
2024-04-14 03:18 pmSSW 8.0 12.0----29.80- 51.3 46.8----
2024-04-14 03:12 pm S 9.9 11.1----29.80- 52.0 46.8----
2024-04-14 03:06 pm S 8.0 11.1----29.80- 51.8 46.8----
2024-04-14 03:00 pm S 7.0 8.9----29.80-0.08------
2024-04-14 02:54 pm S 7.0 9.9----29.81-------
2024-04-14 02:48 pm S 8.0 11.1----29.81- 50.9 46.8----
2024-04-14 02:42 pm S 8.0 8.9----29.81- 51.8 46.8----
2024-04-14 02:36 pmSSW 5.1 7.0----29.81- 51.1 46.8----
2024-04-14 02:30 pmSSW 6.0 8.9----29.82- 50.4 46.6----
2024-04-14 02:24 pmSSW 7.0 8.9----29.83- 50.4 46.6----
2024-04-14 02:18 pmSSW 8.0 12.0----29.84- 50.4 46.6----
2024-04-14 02:12 pmSSW 8.9 9.9----29.84- 49.8 46.4----
2024-04-14 02:06 pmSSW 9.9 12.0----29.85- 49.8 46.6----
2024-04-14 02:00 pmSSW 11.1 14.0----29.86-0.03 50.0 46.4----
2024-04-14 01:54 pmSSW 11.1 12.0----29.87- 49.5 46.4----
2024-04-14 01:48 pmSSW 9.9 12.0----29.87- 49.3 46.4----
2024-04-14 01:42 pmSSW 8.9 11.1----29.87- 49.3 46.4----
2024-04-14 01:36 pmSSW 9.9 11.1----29.88- 48.9 46.4----
2024-04-14 01:30 pmSSW 8.9 12.0----29.87- 48.7 46.4----
2024-04-14 01:24 pmSSW 11.1 13.0----29.87- 49.1 46.4----
2024-04-14 01:18 pmSSW 11.1 14.0----29.87- 49.6 46.4----
2024-04-14 01:12 pmSSW 12.0 17.1----29.87- 49.6 46.2----
2024-04-14 01:06 pmSSW 13.0 15.0----29.88- 49.5 46.2----
2024-04-14 01:00 pm SW 11.1 18.1----29.88-0.02 51.4 46.2----
2024-04-14 12:54 pmWSW 15.0 20.0----29.88- 53.4 46.2----
2024-04-14 12:48 pmSSW 12.0 14.0----29.88-- 46.2----
2024-04-14 12:42 pmSSW 12.0 15.9----29.88-- 46.2----
2024-04-14 12:36 pm SW 14.0 18.1----29.88-- 46.2----
2024-04-14 12:30 pm SW 15.9 19.0----29.88-- 46.2----
2024-04-14 12:24 pm SW 15.0 18.1----29.88-- 46.0----
2024-04-14 12:18 pm SW 15.0 19.0----29.88- 50.4 46.0----
2024-04-14 12:12 pm SW 15.9 19.0----29.88- 50.9 46.0----
2024-04-14 12:06 pmSSW 15.9 19.0----29.89- 50.9 46.0----
2024-04-14 12:00 pmSSW 17.1 22.0----29.89-0.02 51.3 46.0----
2024-04-14 11:54 am SW 18.1 21.0----29.89- 50.9 46.0----
2024-04-14 11:48 am SW 15.9 19.0----29.89- 50.5 46.0----
2024-04-14 11:42 am SW 15.0 18.1----29.89- 50.7 45.9----
2024-04-14 11:36 am SW 15.0 19.0----29.89- 51.3 45.9----
2024-04-14 11:30 am SW 12.0 14.0----29.90-- 45.9----
2024-04-14 11:24 amWSW 8.9 13.0----29.89-- 45.9----
2024-04-14 11:18 amWSW 12.0 15.9----29.89-- 45.9----
2024-04-14 11:12 amWSW 8.9 13.0----29.90-- 45.9----
2024-04-14 11:06 am W 8.0 12.0----29.90-- 45.9----
2024-04-14 11:00 amWSW 11.1 15.9----29.90+0.00 53.2 45.9----
2024-04-14 10:54 am W 9.9 13.0----29.90- 53.4 45.9----